Year,Month,Day,Hour,Minute,Value (Times are PST for temperature in C)
2016,08,24,00,00,15.30
2016,08,24,00,01,15.30
2016,08,24,00,02,15.30
2016,08,24,00,03,15.20
2016,08,24,00,04,15.20
2016,08,24,00,05,15.20
2016,08,24,00,06,15.20
2016,08,24,00,07,15.20
2016,08,24,00,08,15.10
2016,08,24,00,09,15.10
2016,08,24,00,10,15.10
2016,08,24,00,11,15.10
2016,08,24,00,12,15.10
2016,08,24,00,13,15.10
2016,08,24,00,14,15.00
2016,08,24,00,15,15.00
2016,08,24,00,16,15.00
2016,08,24,00,17,15.00
2016,08,24,00,18,15.00
2016,08,24,00,19,15.00
2016,08,24,00,20,15.00
2016,08,24,00,21,15.00
2016,08,24,00,22,14.90
2016,08,24,00,23,14.90
2016,08,24,00,24,14.90
2016,08,24,00,25,14.90
2016,08,24,00,26,14.90
2016,08,24,00,27,14.90
2016,08,24,00,28,14.80
2016,08,24,00,29,14.80
2016,08,24,00,30,14.80
2016,08,24,00,31,14.80
2016,08,24,00,32,14.80
2016,08,24,00,33,14.80
2016,08,24,00,34,14.80
2016,08,24,00,35,14.80
2016,08,24,00,36,14.70
2016,08,24,00,37,14.70
2016,08,24,00,38,14.70
2016,08,24,00,39,14.70
2016,08,24,00,40,14.70
2016,08,24,00,41,14.70
2016,08,24,00,42,14.70
2016,08,24,00,43,14.70
2016,08,24,00,44,14.70
2016,08,24,00,45,14.70
2016,08,24,00,46,14.70
2016,08,24,00,47,14.70
2016,08,24,00,48,14.70
2016,08,24,00,49,14.60
2016,08,24,00,50,14.60
2016,08,24,00,51,14.60
2016,08,24,00,52,14.60
2016,08,24,00,53,14.60
2016,08,24,00,54,14.60
2016,08,24,00,55,14.60
2016,08,24,00,56,14.60
2016,08,24,00,57,14.60
2016,08,24,00,58,14.60
2016,08,24,00,59,14.50
2016,08,24,01,00,14.50
2016,08,24,01,01,14.50
2016,08,24,01,02,14.50
2016,08,24,01,03,14.50
2016,08,24,01,04,14.50
2016,08,24,01,05,14.50
2016,08,24,01,06,14.40
2016,08,24,01,07,14.40
2016,08,24,01,08,14.40
2016,08,24,01,09,14.40
2016,08,24,01,10,14.40
2016,08,24,01,11,14.40
2016,08,24,01,12,14.40
2016,08,24,01,13,14.40
2016,08,24,01,14,14.40
2016,08,24,01,15,14.40
2016,08,24,01,16,14.30
2016,08,24,01,17,14.30
2016,08,24,01,18,14.30
2016,08,24,01,19,14.30
2016,08,24,01,20,14.30
2016,08,24,01,21,14.30
2016,08,24,01,22,14.30
2016,08,24,01,23,14.30
2016,08,24,01,24,14.30
2016,08,24,01,25,14.30
2016,08,24,01,26,14.20
2016,08,24,01,27,14.20
2016,08,24,01,28,14.20
2016,08,24,01,29,14.20
2016,08,24,01,30,14.10
2016,08,24,01,31,14.10
2016,08,24,01,32,14.10
2016,08,24,01,33,14.10
2016,08,24,01,34,14.10
2016,08,24,01,35,14.10
2016,08,24,01,36,14.10
2016,08,24,01,37,14.10
2016,08,24,01,38,14.10
2016,08,24,01,39,14.00
2016,08,24,01,40,14.00
2016,08,24,01,41,14.00
2016,08,24,01,42,14.00
2016,08,24,01,43,14.00
2016,08,24,01,44,14.00
2016,08,24,01,45,13.90
2016,08,24,01,46,13.90
2016,08,24,01,47,13.90
2016,08,24,01,48,13.80
2016,08,24,01,49,13.80
2016,08,24,01,50,13.80
2016,08,24,01,51,13.80
2016,08,24,01,52,13.80
2016,08,24,01,53,13.80
2016,08,24,01,54,13.80
2016,08,24,01,55,13.80
2016,08,24,01,56,13.80
2016,08,24,01,57,13.80
2016,08,24,01,58,13.80
2016,08,24,01,59,13.80
2016,08,24,02,00,13.80
2016,08,24,02,01,13.80
2016,08,24,02,02,13.80
2016,08,24,02,03,13.70
2016,08,24,02,04,13.70
2016,08,24,02,05,13.80
2016,08,24,02,06,13.70
2016,08,24,02,07,13.70
2016,08,24,02,08,13.70
2016,08,24,02,09,13.70
2016,08,24,02,10,13.70
2016,08,24,02,11,13.70
2016,08,24,02,12,13.70
2016,08,24,02,13,13.70
2016,08,24,02,14,13.70
2016,08,24,02,15,13.70
2016,08,24,02,16,13.70
2016,08,24,02,17,13.70
2016,08,24,02,18,13.70
2016,08,24,02,19,13.70
2016,08,24,02,20,13.70
2016,08,24,02,21,13.70
2016,08,24,02,22,13.70
2016,08,24,02,23,13.70
2016,08,24,02,24,13.60
2016,08,24,02,25,13.60
2016,08,24,02,26,13.60
2016,08,24,02,27,13.60
2016,08,24,02,28,13.60
2016,08,24,02,29,13.60
2016,08,24,02,30,13.60
2016,08,24,02,31,13.60
2016,08,24,02,32,13.60
2016,08,24,02,33,13.60
2016,08,24,02,34,13.60
2016,08,24,02,35,13.60
2016,08,24,02,36,13.60
2016,08,24,02,37,13.60
2016,08,24,02,38,13.50
2016,08,24,02,39,13.50
2016,08,24,02,40,13.50
2016,08,24,02,41,13.50
2016,08,24,02,42,13.50
2016,08,24,02,43,13.40
2016,08,24,02,44,13.40
2016,08,24,02,45,13.40
2016,08,24,02,46,13.40
2016,08,24,02,47,13.40
2016,08,24,02,48,13.40
2016,08,24,02,49,13.40
2016,08,24,02,50,13.40
2016,08,24,02,51,13.40
2016,08,24,02,52,13.40
2016,08,24,02,53,13.40
2016,08,24,02,54,13.40
2016,08,24,02,55,13.40
2016,08,24,02,56,13.40
2016,08,24,02,57,13.40
2016,08,24,02,58,13.40
2016,08,24,02,59,13.40
2016,08,24,03,00,13.40
2016,08,24,03,01,13.40
2016,08,24,03,02,13.40
2016,08,24,03,03,13.40
2016,08,24,03,04,13.40
2016,08,24,03,05,13.40
2016,08,24,03,06,13.40
2016,08,24,03,07,13.40
2016,08,24,03,08,13.40
2016,08,24,03,09,13.50
2016,08,24,03,10,13.50
2016,08,24,03,11,13.50
2016,08,24,03,12,13.50
2016,08,24,03,13,13.50
2016,08,24,03,14,13.50
2016,08,24,03,15,13.50
2016,08,24,03,16,13.50
2016,08,24,03,17,13.50
2016,08,24,03,18,13.50
2016,08,24,03,19,13.50
2016,08,24,03,20,13.50
2016,08,24,03,21,13.50
2016,08,24,03,22,13.50
2016,08,24,03,23,13.50
2016,08,24,03,24,13.50
2016,08,24,03,25,13.40
2016,08,24,03,26,13.40
2016,08,24,03,27,13.40
2016,08,24,03,28,13.40
2016,08,24,03,29,13.40
2016,08,24,03,30,13.40
2016,08,24,03,31,13.40
2016,08,24,03,32,13.40
2016,08,24,03,33,13.40
2016,08,24,03,34,13.40
2016,08,24,03,35,13.30
2016,08,24,03,36,13.30
2016,08,24,03,37,13.30
2016,08,24,03,38,13.30
2016,08,24,03,39,13.30
2016,08,24,03,40,13.30
2016,08,24,03,41,13.30
2016,08,24,03,42,13.30
2016,08,24,03,43,13.30
2016,08,24,03,44,13.20
2016,08,24,03,45,13.20
2016,08,24,03,46,13.20
2016,08,24,03,47,13.20
2016,08,24,03,48,13.10
2016,08,24,03,49,13.10
2016,08,24,03,50,13.10
2016,08,24,03,51,13.10
2016,08,24,03,52,13.10
2016,08,24,03,53,13.10
2016,08,24,03,54,13.10
2016,08,24,03,55,13.10
2016,08,24,03,56,13.00
2016,08,24,03,57,13.00
2016,08,24,03,58,13.00
2016,08,24,03,59,13.00
2016,08,24,04,00,13.00
2016,08,24,04,01,13.00
2016,08,24,04,02,12.90
2016,08,24,04,03,12.90
2016,08,24,04,04,12.90
2016,08,24,04,05,12.90
2016,08,24,04,06,12.90
2016,08,24,04,07,12.80
2016,08,24,04,08,12.80
2016,08,24,04,09,12.80
2016,08,24,04,10,12.80
2016,08,24,04,11,12.80
2016,08,24,04,12,12.80
2016,08,24,04,13,12.80
2016,08,24,04,14,12.80
2016,08,24,04,15,12.80
2016,08,24,04,16,12.80
2016,08,24,04,17,12.80
2016,08,24,04,18,12.80
2016,08,24,04,19,12.80
2016,08,24,04,20,12.80
2016,08,24,04,21,12.80
2016,08,24,04,22,12.80
2016,08,24,04,23,12.80
2016,08,24,04,24,12.80
2016,08,24,04,25,12.80
2016,08,24,04,26,12.80
2016,08,24,04,27,12.80
2016,08,24,04,28,12.80
2016,08,24,04,29,12.80
2016,08,24,04,30,12.80
2016,08,24,04,31,12.80
2016,08,24,04,32,12.80
2016,08,24,04,33,12.80
2016,08,24,04,34,12.90
2016,08,24,04,35,12.90
2016,08,24,04,36,12.90
2016,08,24,04,37,12.90
2016,08,24,04,38,12.90
2016,08,24,04,39,12.90
2016,08,24,04,40,12.90
2016,08,24,04,41,12.80
2016,08,24,04,42,12.80
2016,08,24,04,43,12.80
2016,08,24,04,44,12.70
2016,08,24,04,45,12.70
2016,08,24,04,46,12.70
2016,08,24,04,47,12.70
2016,08,24,04,48,12.70
2016,08,24,04,49,12.70
2016,08,24,04,50,12.70
2016,08,24,04,51,12.70
2016,08,24,04,52,12.70
2016,08,24,04,53,12.60
2016,08,24,04,54,12.60
2016,08,24,04,55,12.60
2016,08,24,04,56,12.60
2016,08,24,04,57,12.60
2016,08,24,04,58,12.60
2016,08,24,04,59,12.60
2016,08,24,05,00,12.60
2016,08,24,05,01,12.60
2016,08,24,05,02,12.60
2016,08,24,05,03,12.60
2016,08,24,05,04,12.60
2016,08,24,05,05,12.60
2016,08,24,05,06,12.60
2016,08,24,05,07,12.60
2016,08,24,05,08,12.60
2016,08,24,05,09,12.50
2016,08,24,05,10,12.50
2016,08,24,05,11,12.50
2016,08,24,05,12,12.50
2016,08,24,05,13,12.50
2016,08,24,05,14,12.50
2016,08,24,05,15,12.50
2016,08,24,05,16,12.50
2016,08,24,05,17,12.50
2016,08,24,05,18,12.60
2016,08,24,05,19,12.60
2016,08,24,05,20,12.60
2016,08,24,05,21,12.60
2016,08,24,05,22,12.60
2016,08,24,05,23,12.60
2016,08,24,05,24,12.60
2016,08,24,05,25,12.60
2016,08,24,05,26,12.70
2016,08,24,05,27,12.70
2016,08,24,05,28,12.70
2016,08,24,05,29,12.80
2016,08,24,05,30,12.80
2016,08,24,05,31,12.80
2016,08,24,05,32,12.80
2016,08,24,05,33,12.80
2016,08,24,05,34,12.80
2016,08,24,05,35,12.80
2016,08,24,05,36,12.80
2016,08,24,05,37,12.80
2016,08,24,05,38,12.80
2016,08,24,05,39,12.80
2016,08,24,05,40,12.80
2016,08,24,05,41,12.80
2016,08,24,05,42,12.80
2016,08,24,05,43,12.80
2016,08,24,05,44,12.80
2016,08,24,05,45,12.80
2016,08,24,05,46,12.70
2016,08,24,05,47,12.70
2016,08,24,05,48,12.60
2016,08,24,05,49,12.50
2016,08,24,05,50,12.40
2016,08,24,05,51,12.40
2016,08,24,05,52,12.30
2016,08,24,05,53,12.30
2016,08,24,05,54,12.30
2016,08,24,05,55,12.20
2016,08,24,05,56,12.20
2016,08,24,05,57,12.20
2016,08,24,05,58,12.20
2016,08,24,05,59,12.20
2016,08,24,06,00,12.30
2016,08,24,06,01,12.30
2016,08,24,06,02,12.30
2016,08,24,06,03,12.30
2016,08,24,06,04,12.30
2016,08,24,06,05,12.30
2016,08,24,06,06,12.30
2016,08,24,06,07,12.30
2016,08,24,06,08,12.20
2016,08,24,06,09,12.20
2016,08,24,06,10,12.20
2016,08,24,06,11,12.20
2016,08,24,06,12,12.20
2016,08,24,06,13,12.20
2016,08,24,06,14,12.20
2016,08,24,06,15,12.10
2016,08,24,06,16,12.10
2016,08,24,06,17,12.10
2016,08,24,06,18,12.10
2016,08,24,06,19,12.10
2016,08,24,06,20,12.10
2016,08,24,06,21,12.00
2016,08,24,06,22,12.00
2016,08,24,06,23,12.00
2016,08,24,06,24,12.00
2016,08,24,06,25,11.90
2016,08,24,06,26,11.90
2016,08,24,06,27,11.90
2016,08,24,06,28,11.90
2016,08,24,06,29,11.90
2016,08,24,06,30,11.90
2016,08,24,06,31,11.90
2016,08,24,06,32,11.90
2016,08,24,06,33,11.90
2016,08,24,06,34,11.90
2016,08,24,06,35,11.90
2016,08,24,06,36,11.90
2016,08,24,06,37,11.90
2016,08,24,06,38,11.90
2016,08,24,06,39,11.90
2016,08,24,06,40,11.90
2016,08,24,06,41,11.90
2016,08,24,06,42,11.90
2016,08,24,06,43,11.90
2016,08,24,06,44,11.90
2016,08,24,06,45,11.90
2016,08,24,06,46,11.90
2016,08,24,06,47,11.90
2016,08,24,06,48,11.90
2016,08,24,06,49,11.90
2016,08,24,06,50,11.90
2016,08,24,06,51,11.90
2016,08,24,06,52,12.00
2016,08,24,06,53,12.00
2016,08,24,06,54,12.00
2016,08,24,06,55,12.00
2016,08,24,06,56,12.00
2016,08,24,06,57,12.10
2016,08,24,06,58,12.10
2016,08,24,06,59,12.10
2016,08,24,07,00,12.10
2016,08,24,07,01,12.10
2016,08,24,07,02,12.10
2016,08,24,07,03,12.10
2016,08,24,07,04,12.10
2016,08,24,07,05,12.20
2016,08,24,07,06,12.20
2016,08,24,07,07,12.20
2016,08,24,07,08,12.20
2016,08,24,07,09,12.30
2016,08,24,07,10,12.30
2016,08,24,07,11,12.30
2016,08,24,07,12,12.30
2016,08,24,07,13,12.40
2016,08,24,07,14,12.50
2016,08,24,07,15,12.50
2016,08,24,07,16,12.60
2016,08,24,07,17,12.60
2016,08,24,07,18,12.70
2016,08,24,07,19,12.80
2016,08,24,07,20,12.90
2016,08,24,07,21,13.00
2016,08,24,07,22,13.10
2016,08,24,07,23,13.20
2016,08,24,07,24,13.30
2016,08,24,07,25,13.40
2016,08,24,07,26,13.50
2016,08,24,07,27,13.60
2016,08,24,07,28,13.80
2016,08,24,07,29,13.90
2016,08,24,07,30,14.00
2016,08,24,07,31,14.10
2016,08,24,07,32,14.20
2016,08,24,07,33,14.20
2016,08,24,07,34,14.30
2016,08,24,07,35,14.40
2016,08,24,07,36,14.40
2016,08,24,07,37,14.40
2016,08,24,07,38,14.40
2016,08,24,07,39,14.50
2016,08,24,07,40,14.60
2016,08,24,07,41,14.70
2016,08,24,07,42,14.80
2016,08,24,07,43,14.90
2016,08,24,07,44,15.00
2016,08,24,07,45,15.10
2016,08,24,07,46,15.30
2016,08,24,07,47,15.40
2016,08,24,07,48,15.60
2016,08,24,07,49,15.70
2016,08,24,07,50,15.90
2016,08,24,07,51,16.00
2016,08,24,07,52,16.20
2016,08,24,07,53,16.30
2016,08,24,07,54,16.40
2016,08,24,07,55,16.50
2016,08,24,07,56,16.60
2016,08,24,07,57,16.70
2016,08,24,07,58,16.80
2016,08,24,07,59,16.90
2016,08,24,08,00,16.90
2016,08,24,08,01,16.90
2016,08,24,08,02,17.00
2016,08,24,08,03,17.00
2016,08,24,08,04,17.10
2016,08,24,08,05,17.20
2016,08,24,08,06,17.30
2016,08,24,08,07,17.50
2016,08,24,08,08,17.60
2016,08,24,08,09,17.80
2016,08,24,08,10,17.80
2016,08,24,08,11,17.90
2016,08,24,08,12,18.00
2016,08,24,08,13,18.00
2016,08,24,08,14,18.10
2016,08,24,08,15,18.10
2016,08,24,08,16,18.20
2016,08,24,08,17,18.30
2016,08,24,08,18,18.40
2016,08,24,08,19,18.50
2016,08,24,08,20,18.60
2016,08,24,08,21,18.70
2016,08,24,08,22,18.80
2016,08,24,08,23,18.80
2016,08,24,08,24,18.90
2016,08,24,08,25,19.00
2016,08,24,08,26,19.00
2016,08,24,08,27,19.00
2016,08,24,08,28,19.10
2016,08,24,08,29,19.10
2016,08,24,08,30,19.10
2016,08,24,08,31,19.10
2016,08,24,08,32,19.20
2016,08,24,08,33,19.20
2016,08,24,08,34,19.30
2016,08,24,08,35,19.40
2016,08,24,08,36,19.40
2016,08,24,08,37,19.50
2016,08,24,08,38,19.50
2016,08,24,08,39,19.60
2016,08,24,08,40,19.70
2016,08,24,08,41,19.70
2016,08,24,08,42,19.80
2016,08,24,08,43,19.90
2016,08,24,08,44,19.90
2016,08,24,08,45,20.00
2016,08,24,08,46,20.10
2016,08,24,08,47,20.10
2016,08,24,08,48,20.10
2016,08,24,08,49,20.10
2016,08,24,08,50,20.20
2016,08,24,08,51,20.20
2016,08,24,08,52,20.30
2016,08,24,08,53,20.30
2016,08,24,08,54,20.30
2016,08,24,08,55,20.30
2016,08,24,08,56,20.40
2016,08,24,08,57,20.40
2016,08,24,08,58,20.40
2016,08,24,08,59,20.40
2016,08,24,09,00,20.40
2016,08,24,09,01,20.40
2016,08,24,09,02,20.40
2016,08,24,09,03,20.40
2016,08,24,09,04,20.40
2016,08,24,09,05,20.40
2016,08,24,09,06,20.50
2016,08,24,09,07,20.60
2016,08,24,09,08,20.70
2016,08,24,09,09,20.80
2016,08,24,09,10,20.80
2016,08,24,09,11,20.90
2016,08,24,09,12,20.90
2016,08,24,09,13,20.90
2016,08,24,09,14,20.90
2016,08,24,09,15,21.00
2016,08,24,09,16,21.00
2016,08,24,09,17,21.00
2016,08,24,09,18,21.00
2016,08,24,09,19,21.00
2016,08,24,09,20,21.10
2016,08,24,09,21,21.20
2016,08,24,09,22,21.20
2016,08,24,09,23,21.20
2016,08,24,09,24,21.20
2016,08,24,09,25,21.20
2016,08,24,09,26,21.20
2016,08,24,09,27,21.20
2016,08,24,09,28,21.30
2016,08,24,09,29,21.30
2016,08,24,09,30,21.30
2016,08,24,09,31,21.40
2016,08,24,09,32,21.30
2016,08,24,09,33,21.30
2016,08,24,09,34,21.40
2016,08,24,09,35,21.40
2016,08,24,09,36,21.40
2016,08,24,09,37,21.50
2016,08,24,09,38,21.50
2016,08,24,09,39,21.60
2016,08,24,09,40,21.60
2016,08,24,09,41,21.60
2016,08,24,09,42,21.60
2016,08,24,09,43,21.60
2016,08,24,09,44,21.60
2016,08,24,09,45,21.60
2016,08,24,09,46,21.70
2016,08,24,09,47,21.70
2016,08,24,09,48,21.80
2016,08,24,09,49,21.70
2016,08,24,09,50,21.70
2016,08,24,09,51,21.70
2016,08,24,09,52,21.60
2016,08,24,09,53,21.60
2016,08,24,09,54,21.70
2016,08,24,09,55,21.80
2016,08,24,09,56,21.90
2016,08,24,09,57,21.90
2016,08,24,09,58,21.90
2016,08,24,09,59,22.00
2016,08,24,10,00,22.00
2016,08,24,10,01,22.20
2016,08,24,10,02,22.20
2016,08,24,10,03,22.10
2016,08,24,10,04,22.10
2016,08,24,10,05,22.10
2016,08,24,10,06,22.10
2016,08,24,10,07,22.10
2016,08,24,10,08,22.10
2016,08,24,10,09,22.10
2016,08,24,10,10,22.20
2016,08,24,10,11,22.20
2016,08,24,10,12,22.20
2016,08,24,10,13,22.20
2016,08,24,10,14,22.20
2016,08,24,10,15,22.20
2016,08,24,10,16,22.30
2016,08,24,10,17,22.30
2016,08,24,10,18,22.30
2016,08,24,10,19,22.30
2016,08,24,10,20,22.40
2016,08,24,10,21,22.40
2016,08,24,10,22,22.40
2016,08,24,10,23,22.50
2016,08,24,10,24,22.50
2016,08,24,10,25,22.50
2016,08,24,10,26,22.50
2016,08,24,10,27,22.50
2016,08,24,10,28,22.50
2016,08,24,10,29,22.50
2016,08,24,10,30,22.60
2016,08,24,10,31,22.50
2016,08,24,10,32,22.50
2016,08,24,10,33,22.50
2016,08,24,10,34,22.60
2016,08,24,10,35,22.50
2016,08,24,10,36,22.50
2016,08,24,10,37,22.50
2016,08,24,10,38,22.60
2016,08,24,10,39,22.70
2016,08,24,10,40,22.70
2016,08,24,10,41,22.70
2016,08,24,10,42,22.80
2016,08,24,10,43,22.80
2016,08,24,10,44,22.90
2016,08,24,10,45,22.90
2016,08,24,10,46,23.00
2016,08,24,10,47,22.90
2016,08,24,10,48,22.90
2016,08,24,10,49,22.90
2016,08,24,10,50,22.90
2016,08,24,10,51,22.80
2016,08,24,10,52,22.80
2016,08,24,10,53,22.80
2016,08,24,10,54,22.70
2016,08,24,10,55,22.60
2016,08,24,10,56,22.60
2016,08,24,10,57,22.60
2016,08,24,10,58,22.60
2016,08,24,10,59,22.70
2016,08,24,11,00,22.70
2016,08,24,11,01,22.60
2016,08,24,11,02,22.60
2016,08,24,11,03,22.70
2016,08,24,11,04,22.70
2016,08,24,11,05,22.80
2016,08,24,11,06,22.80
2016,08,24,11,07,22.80
2016,08,24,11,08,22.90
2016,08,24,11,09,22.90
2016,08,24,11,10,22.90
2016,08,24,11,11,22.90
2016,08,24,11,12,22.90
2016,08,24,11,13,22.80
2016,08,24,11,14,22.80
2016,08,24,11,15,22.80
2016,08,24,11,16,22.80
2016,08,24,11,17,22.80
2016,08,24,11,18,22.90
2016,08,24,11,19,23.00
2016,08,24,11,20,23.00
2016,08,24,11,21,23.10
2016,08,24,11,22,23.20
2016,08,24,11,23,23.30
2016,08,24,11,24,23.20
2016,08,24,11,25,23.30
2016,08,24,11,26,23.40
2016,08,24,11,27,23.50
2016,08,24,11,28,23.60
2016,08,24,11,29,23.70
2016,08,24,11,30,23.70
2016,08,24,11,31,23.70
2016,08,24,11,32,23.80
2016,08,24,11,33,23.80
2016,08,24,11,34,23.80
2016,08,24,11,35,24.00
2016,08,24,11,36,24.10
2016,08,24,11,37,24.20
2016,08,24,11,38,24.30
2016,08,24,11,39,24.30
2016,08,24,11,40,24.20
2016,08,24,11,41,24.20
2016,08,24,11,42,24.10
2016,08,24,11,43,24.00
2016,08,24,11,44,23.90
2016,08,24,11,45,23.90
2016,08,24,11,46,23.90
2016,08,24,11,47,24.00
2016,08,24,11,48,24.00
2016,08,24,11,49,24.00
2016,08,24,11,50,24.00
2016,08,24,11,51,24.10
2016,08,24,11,52,24.10
2016,08,24,11,53,24.10
2016,08,24,11,54,24.10
2016,08,24,11,55,24.10
2016,08,24,11,56,24.10
2016,08,24,11,57,24.10
2016,08,24,11,58,24.10
2016,08,24,11,59,24.10
2016,08,24,12,00,24.20
2016,08,24,12,01,24.30
2016,08,24,12,02,24.50
2016,08,24,12,03,24.60
2016,08,24,12,04,24.60
2016,08,24,12,05,24.60
2016,08,24,12,06,24.60
2016,08,24,12,07,24.70
2016,08,24,12,08,24.70
2016,08,24,12,09,24.60
2016,08,24,12,10,24.60
2016,08,24,12,11,24.50
2016,08,24,12,12,24.50
2016,08,24,12,13,24.50
2016,08,24,12,14,24.50
2016,08,24,12,15,24.50
2016,08,24,12,16,24.50
2016,08,24,12,17,24.50
2016,08,24,12,18,24.60
2016,08,24,12,19,24.60
2016,08,24,12,20,24.70
2016,08,24,12,21,24.70
2016,08,24,12,22,24.70
2016,08,24,12,23,24.70
2016,08,24,12,24,24.70
2016,08,24,12,25,24.70
2016,08,24,12,26,24.80
2016,08,24,12,27,24.90
2016,08,24,12,28,24.90
2016,08,24,12,29,24.90
2016,08,24,12,30,24.90
2016,08,24,12,31,24.90
2016,08,24,12,32,24.90
2016,08,24,12,33,24.80
2016,08,24,12,34,24.90
2016,08,24,12,35,24.90
2016,08,24,12,36,24.90
2016,08,24,12,37,24.90
2016,08,24,12,38,24.80
2016,08,24,12,39,24.80
2016,08,24,12,40,24.90
2016,08,24,12,41,24.90
2016,08,24,12,42,25.00
2016,08,24,12,43,24.90
2016,08,24,12,44,24.90
2016,08,24,12,45,24.80
2016,08,24,12,46,24.80
2016,08,24,12,47,25.00
2016,08,24,12,48,25.10
2016,08,24,12,49,25.20
2016,08,24,12,50,25.30
2016,08,24,12,51,25.40
2016,08,24,12,52,25.30
2016,08,24,12,53,25.30
2016,08,24,12,54,25.30
2016,08,24,12,55,25.20
2016,08,24,12,56,25.20
2016,08,24,12,57,25.10
2016,08,24,12,58,25.10
2016,08,24,12,59,25.00
2016,08,24,13,00,25.00
2016,08,24,13,01,25.00
2016,08,24,13,02,25.10
2016,08,24,13,03,25.00
2016,08,24,13,04,25.10
2016,08,24,13,05,25.20
2016,08,24,13,06,25.30
2016,08,24,13,07,25.30
2016,08,24,13,08,25.40
2016,08,24,13,09,25.50
2016,08,24,13,10,25.60
2016,08,24,13,11,25.70
2016,08,24,13,12,25.70
2016,08,24,13,13,25.70
2016,08,24,13,14,25.80
2016,08,24,13,15,25.80
2016,08,24,13,16,25.80
2016,08,24,13,17,25.70
2016,08,24,13,18,25.70
2016,08,24,13,19,25.70
2016,08,24,13,20,25.70
2016,08,24,13,21,25.80
2016,08,24,13,22,25.80
2016,08,24,13,23,25.90
2016,08,24,13,24,26.00
2016,08,24,13,25,25.90
2016,08,24,13,26,25.90
2016,08,24,13,27,25.90
2016,08,24,13,28,25.80
2016,08,24,13,29,25.80
2016,08,24,13,30,25.80
2016,08,24,13,31,25.70
2016,08,24,13,32,25.60
2016,08,24,13,33,25.70
2016,08,24,13,34,25.70
2016,08,24,13,35,25.70
2016,08,24,13,36,25.70
2016,08,24,13,37,25.70
2016,08,24,13,38,25.60
2016,08,24,13,39,25.50
2016,08,24,13,40,25.50
2016,08,24,13,41,25.40
2016,08,24,13,42,25.50
2016,08,24,13,43,25.60
2016,08,24,13,44,25.70
2016,08,24,13,45,25.70
2016,08,24,13,46,25.70
2016,08,24,13,47,25.70
2016,08,24,13,48,25.70
2016,08,24,13,49,25.80
2016,08,24,13,50,25.80
2016,08,24,13,51,25.90
2016,08,24,13,52,25.90
2016,08,24,13,53,25.80
2016,08,24,13,54,25.80
2016,08,24,13,55,25.60
2016,08,24,13,56,25.60
2016,08,24,13,57,25.60
2016,08,24,13,58,25.50
2016,08,24,13,59,25.40
2016,08,24,14,00,25.40
2016,08,24,14,01,25.40
2016,08,24,14,02,25.30
2016,08,24,14,03,25.40
2016,08,24,14,04,25.40
2016,08,24,14,05,25.50
2016,08,24,14,06,25.50
2016,08,24,14,07,25.40
2016,08,24,14,08,25.40
2016,08,24,14,09,25.50
2016,08,24,14,10,25.60
2016,08,24,14,11,25.80
2016,08,24,14,12,25.90
2016,08,24,14,13,26.00
2016,08,24,14,14,26.10
2016,08,24,14,15,26.10
2016,08,24,14,16,26.00
2016,08,24,14,17,26.00
2016,08,24,14,18,25.90
2016,08,24,14,19,25.90
2016,08,24,14,20,25.90
2016,08,24,14,21,25.90
2016,08,24,14,22,25.80
2016,08,24,14,23,25.80
2016,08,24,14,24,25.90
2016,08,24,14,25,26.10
2016,08,24,14,26,26.10
2016,08,24,14,27,26.10
2016,08,24,14,28,26.20
2016,08,24,14,29,26.40
2016,08,24,14,30,26.50
2016,08,24,14,31,26.60
2016,08,24,14,32,26.70
2016,08,24,14,33,26.80
2016,08,24,14,34,26.90
2016,08,24,14,35,26.90
2016,08,24,14,36,26.90
2016,08,24,14,37,26.90
2016,08,24,14,38,26.80
2016,08,24,14,39,26.80
2016,08,24,14,40,26.90
2016,08,24,14,41,27.00
2016,08,24,14,42,27.00
2016,08,24,14,43,27.00
2016,08,24,14,44,27.10
2016,08,24,14,45,27.10
2016,08,24,14,46,27.10
2016,08,24,14,47,27.10
2016,08,24,14,48,27.10
2016,08,24,14,49,27.10
2016,08,24,14,50,27.00
2016,08,24,14,51,26.90
2016,08,24,14,52,26.90
2016,08,24,14,53,26.90
2016,08,24,14,54,26.90
2016,08,24,14,55,26.80
2016,08,24,14,56,26.80
2016,08,24,14,57,26.70
2016,08,24,14,58,26.80
2016,08,24,14,59,26.90
2016,08,24,15,00,27.10
2016,08,24,15,01,27.10
2016,08,24,15,02,27.10
2016,08,24,15,03,27.10
2016,08,24,15,04,27.20
2016,08,24,15,05,27.40
2016,08,24,15,06,27.40
2016,08,24,15,07,27.30
2016,08,24,15,08,27.40
2016,08,24,15,09,27.50
2016,08,24,15,10,27.60
2016,08,24,15,11,27.60
2016,08,24,15,12,27.60
2016,08,24,15,13,27.60
2016,08,24,15,14,27.50
2016,08,24,15,15,27.50
2016,08,24,15,16,27.40
2016,08,24,15,17,27.40
2016,08,24,15,18,27.40
2016,08,24,15,19,27.40
2016,08,24,15,20,27.30
2016,08,24,15,21,27.30
2016,08,24,15,22,27.20
2016,08,24,15,23,27.20
2016,08,24,15,24,27.20
2016,08,24,15,25,27.30
2016,08,24,15,26,27.40
2016,08,24,15,27,27.50
2016,08,24,15,28,27.50
2016,08,24,15,29,27.50
2016,08,24,15,30,27.60
2016,08,24,15,31,27.60
2016,08,24,15,32,27.60
2016,08,24,15,33,27.70
2016,08,24,15,34,27.80
2016,08,24,15,35,27.80
2016,08,24,15,36,27.90
2016,08,24,15,37,27.90
2016,08,24,15,38,28.00
2016,08,24,15,39,28.00
2016,08,24,15,40,28.10
2016,08,24,15,41,28.10
2016,08,24,15,42,28.20
2016,08,24,15,43,28.20
2016,08,24,15,44,28.20
2016,08,24,15,45,28.30
2016,08,24,15,46,28.30
2016,08,24,15,47,28.40
2016,08,24,15,48,28.40
2016,08,24,15,49,28.40
2016,08,24,15,50,28.50
2016,08,24,15,51,28.50
2016,08,24,15,52,28.50
2016,08,24,15,53,28.50
2016,08,24,15,54,28.50
2016,08,24,15,55,28.60
2016,08,24,15,56,28.60
2016,08,24,15,57,28.60
2016,08,24,15,58,28.60
2016,08,24,15,59,28.60
2016,08,24,16,00,28.60
2016,08,24,16,01,28.60
2016,08,24,16,02,28.60
2016,08,24,16,03,28.60
2016,08,24,16,04,28.60
2016,08,24,16,05,28.60
2016,08,24,16,06,28.60
2016,08,24,16,07,28.70
2016,08,24,16,08,28.60
2016,08,24,16,09,28.60
2016,08,24,16,10,28.70
2016,08,24,16,11,28.70
2016,08,24,16,12,28.60
2016,08,24,16,13,28.60
2016,08,24,16,14,28.60
2016,08,24,16,15,28.60
2016,08,24,16,16,28.60
2016,08,24,16,17,28.60
2016,08,24,16,18,28.60
2016,08,24,16,19,28.50
2016,08,24,16,20,28.50
2016,08,24,16,21,28.50
2016,08,24,16,22,28.50
2016,08,24,16,23,28.40
2016,08,24,16,24,28.40
2016,08,24,16,25,28.50
2016,08,24,16,26,28.60
2016,08,24,16,27,28.70
2016,08,24,16,28,28.60
2016,08,24,16,29,28.60
2016,08,24,16,30,28.70
2016,08,24,16,31,28.70
2016,08,24,16,32,28.60
2016,08,24,16,33,28.60
2016,08,24,16,34,28.60
2016,08,24,16,35,28.60
2016,08,24,16,36,28.60
2016,08,24,16,37,28.60
2016,08,24,16,38,28.60
2016,08,24,16,39,28.70
2016,08,24,16,40,28.80
2016,08,24,16,41,28.90
2016,08,24,16,42,29.00
2016,08,24,16,43,29.00
2016,08,24,16,44,29.10
2016,08,24,16,45,29.10
2016,08,24,16,46,29.10
2016,08,24,16,47,29.10
2016,08,24,16,48,29.20
2016,08,24,16,49,29.30
2016,08,24,16,50,29.30
2016,08,24,16,51,29.30
2016,08,24,16,52,29.30
2016,08,24,16,53,29.20
2016,08,24,16,54,29.10
2016,08,24,16,55,29.00
2016,08,24,16,56,29.00
2016,08,24,16,57,29.00
2016,08,24,16,58,29.10
2016,08,24,16,59,29.10
2016,08,24,17,00,29.20
2016,08,24,17,01,29.30
2016,08,24,17,02,29.40
2016,08,24,17,03,29.50
2016,08,24,17,04,29.60
2016,08,24,17,05,29.60
2016,08,24,17,06,29.70
2016,08,24,17,07,29.70
2016,08,24,17,08,29.70
2016,08,24,17,09,29.70
2016,08,24,17,10,29.70
2016,08,24,17,11,29.70
2016,08,24,17,12,29.70
2016,08,24,17,13,29.70
2016,08,24,17,14,29.70
2016,08,24,17,15,29.70
2016,08,24,17,16,29.70
2016,08,24,17,17,29.70
2016,08,24,17,18,29.60
2016,08,24,17,19,29.50